STARLINK-32704, 62826

Orbit data source: Space-Track

STARLINK-32704, 62826 is a payload satellite owned by SpaceX/Seattle (US) in LEO that was launched on Fri, 24 Jan 2025 UTC via an FALCON 9 launch vehicle from the Air Force Western Test Range (AFWTR). Payload-class satellites include a variety of spacecraft equipped with specific instruments for various scientific and technological missions. These include communications satellites like Starlink; space stations such as the ISS; scientific satellites like the Hubble; Earth observation satellites from companies like Planet Labs, Umbra, and HawkEye 360; GPS; miniature CubeSats for education and research; and military/defense satellites.

Loading next visibility...
Identifier
62826, 2025-018W
Orbit
LEO
Country
Flag of USUS
Related business
Manufacturer
SpaceX/Seattle
Mission
Operational Commercial Communications
Bus & Motor
STARLINK V2M, Unknown motor
Mass
730 kg wet, ~700 kg dry
Launch date (UTC)
2025-01-24 (9 months ago)
Launch vehicle
FALCON 9
Launch site
Air Force Western Test Range (AFWTR)
Object type
Payload
Rocket body
Debris
Shape & HBR
Box + 2 Pan, 17.7 m
Radar Cross Section
33.884 m², Large (>1 m²)

Expand to show TLE details & history
Last TLE update: 5 hours ago

TLE from 5 hours ago
0 STARLINK-32704
1 62826U 25018W   25289.18199522  .00012110  00000-0  42019-3 0  9997
2 62826  53.1600 260.8381 0001256  64.7041 295.4090 15.30209373 41046
Epoch: 2025-10-16T04:22Z
TLE epoch observation values (Epoch: 2025-10-16T04:22:04.387Z)
Latitude
0.00002°
Longitude
170.37444°
Altitude
475.718 km
Speed
7.629 km/s
True Right ascension
17h 23m 21s
True Declination
0° 00' 00"
Sunlit
Object was in daylight at epoch
Visualization orbit readout
Latitude
Unknown
Longitude
Unknown
Altitude
Unknown
Speed
Unknown
Apparent Right ascension
Unknown
Apparent Declination
Unknown
Sunlit
N/A
Visualization observer readout
Local Sidereal Time
03:41:46
Azimuth
Unknown
Elevation
Unknown
Doppler factor
Unknown
Orbital elements
Apogee altitude
476.304 km
Perigee altitude
474.583 km
Semi-major axis
6,853.581 km
Eccentricity
0.00013
Inclination
53.16°
RAAN
260.8381°
Arg. of periapsis
64.7041°
True anomaly
295.396°
Mean anomaly
295.409°
Eccentric anomaly
295.4025°
Mean motion
3.82531 °/min
Orbital period
94.11 mins
BSTAR
0.00042019
Loading maneuver chart data...
Computing Atmospheric mass density...
Loading historical data...
Loading historical data...
Loading historical data...
Loading historical data...
Loading historical data...
Loading historical data...
Loading historical data...

Documentation

Showing up to 5 results
|